| time (UTC) | temp C | wind direction | speed KPH | gust KPH | rain 1hr cm | rain 24hr cm | rain mn cm | humidity % | barometer mb |
| 20260503010047 | 28 | 46 | 6.4 | 16.1 | 0.00 | 0.00 | 0.00 | 32 | 1009.9 |
| 20260503005047 | 28 | 43 | 6.4 | 19.3 | 0.00 | 0.00 | 0.00 | 33 | 1009.9 |
| 20260503004107 | 29 | 41 | 6.4 | 17.7 | 0.00 | 0.00 | 0.00 | 33 | 1009.9 |
| 20260503003047 | 29 | 42 | 6.4 | 16.1 | 0.00 | 0.00 | 0.00 | 33 | 1010.0 |
| 20260503002047 | 29 | 51 | 9.7 | 19.3 | 0.00 | 0.00 | 0.00 | 33 | 1009.9 |
| 20260503001047 | 29 | 41 | 6.4 | 14.5 | 0.00 | 0.00 | 0.00 | 33 | 1009.9 |
| 20260503000047 | 28 | 46 | 8.0 | 20.9 | 0.00 | 0.00 | 0.00 | 32 | 1010.0 |
| 20260502235048 | 28 | 41 | 6.4 | 16.1 | 0.00 | 0.00 | 0.00 | 33 | 1010.1 |
| 20260502234047 | 28 | 63 | 8.0 | 22.5 | 0.00 | 0.00 | 0.00 | 33 | 1010.1 |
| 20260502233048 | 28 | 52 | 11.3 | 22.5 | 0.00 | 0.00 | 0.00 | 32 | 1010.2 |
| 20260502232048 | 28 | 42 | 6.4 | 14.5 | 0.00 | 0.00 | 0.00 | 33 | 1010.2 |
| 20260502231048 | 28 | 43 | 11.3 | 24.1 | 0.00 | 0.00 | 0.00 | 33 | 1010.3 |
| 20260502230048 | 29 | 17 | 4.8 | 12.9 | 0.00 | 0.00 | 0.00 | 33 | 1010.4 |
| 20260502225048 | 29 | 19 | 6.4 | 17.7 | 0.00 | 0.00 | 0.00 | 33 | 1010.5 |
| 20260502224108 | 28 | 30 | 4.8 | 20.9 | 0.00 | 0.00 | 0.00 | 34 | 1010.8 |
| 20260502223048 | 28 | 57 | 9.7 | 20.9 | 0.00 | 0.00 | 0.00 | 35 | 1010.9 |
| 20260502222050 | 28 | 62 | 11.3 | 24.1 | 0.00 | 0.00 | 0.00 | 35 | 1011.0 |
| 20260502221048 | 28 | 347 | 4.8 | 11.3 | 0.00 | 0.00 | 0.00 | 35 | 1011.2 |
| 20260502220049 | 28 | 36 | 4.8 | 22.5 | 0.00 | 0.00 | 0.00 | 35 | 1011.2 |
| 20260502215049 | 27 | 17 | 4.8 | 16.1 | 0.00 | 0.00 | 0.00 | 36 | 1011.3 |
| 20260502214109 | 27 | 48 | 8.0 | 16.1 | 0.00 | 0.00 | 0.00 | 37 | 1011.4 |
| 20260502213049 | 27 | 47 | 8.0 | 19.3 | 0.00 | 0.00 | 0.00 | 37 | 1011.6 |
| 20260502212050 | 27 | 48 | 11.3 | 24.1 | 0.00 | 0.00 | 0.00 | 38 | 1011.6 |
| 20260502211049 | 27 | 41 | 6.4 | 25.7 | 0.00 | 0.00 | 0.00 | 37 | 1011.7 |
| 20260502210050 | 27 | 44 | 8.0 | 22.5 | 0.00 | 0.00 | 0.00 | 36 | 1011.9 |
| 20260502205050 | 27 | 47 | 8.0 | 27.4 | 0.00 | 0.00 | 0.00 | 37 | 1012.0 |
| 20260502204050 | 26 | 4 | 6.4 | 20.9 | 0.00 | 0.00 | 0.00 | 37 | 1012.1 |
| 20260502203050 | 27 | 26 | 3.2 | 11.3 | 0.00 | 0.00 | 0.00 | 37 | 1012.2 |
| 20260502202050 | 27 | 17 | 4.8 | 16.1 | 0.00 | 0.00 | 0.00 | 37 | 1012.3 |
| 20260502201050 | 27 | 51 | 8.0 | 20.9 | 0.00 | 0.00 | 0.00 | 37 | 1012.4 |
| 20260502200050 | 27 | 46 | 8.0 | 16.1 | 0.00 | 0.00 | 0.00 | 37 | 1012.4 |
| 20260502195050 | 27 | 40 | 3.2 | 16.1 | 0.00 | 0.00 | 0.00 | 36 | 1012.5 |
| 20260502194050 | 26 | 32 | 3.2 | 14.5 | 0.00 | 0.00 | 0.00 | 37 | 1012.7 |
| 20260502193050 | 26 | 293 | 11.3 | 27.4 | 0.00 | 0.00 | 0.00 | 40 | 1012.7 |
| 20260502192050 | 26 | 276 | 11.3 | 20.9 | 0.00 | 0.00 | 0.00 | 40 | 1012.9 |
| 20260502191111 | 25 | 282 | 4.8 | 16.1 | 0.00 | 0.00 | 0.00 | 40 | 1013.0 |
| 20260502190111 | 25 | 267 | 11.3 | 20.9 | 0.00 | 0.00 | 0.00 | 40 | 1013.1 |
| 20260502185051 | 25 | 283 | 12.9 | 17.7 | 0.00 | 0.00 | 0.00 | 42 | 1013.2 |
| 20260502184052 | 25 | 268 | 11.3 | 17.7 | 0.00 | 0.00 | 0.00 | 42 | 1013.1 |
| 20260502183111 | 25 | 298 | 12.9 | 20.9 | 0.00 | 0.00 | 0.00 | 41 | 1013.1 |
| 20260502182052 | 25 | 44 | 1.6 | 11.3 | 0.00 | 0.00 | 0.00 | 39 | 1013.2 |
| 20260502181111 | 25 | 290 | 1.6 | 8.0 | 0.00 | 0.00 | 0.00 | 39 | 1013.2 |
| 20260502164112 | 22 | 285 | 11.3 | 14.5 | 0.00 | 0.00 | 0.00 | 47 | 1013.4 |
| 20260502163053 | 21 | 285 | 11.3 | 16.1 | 0.00 | 0.00 | 0.00 | 48 | 1013.4 |
| 20260502162053 | 21 | 266 | 11.3 | 17.7 | 0.00 | 0.00 | 0.00 | 48 | 1013.4 |
| 20260502161053 | 20 | 261 | 11.3 | 14.5 | 0.00 | 0.00 | 0.00 | 50 | 1013.4 |
| 20260502152114 | 18 | 0.0 | 0.0 | 0.00 | 0.00 | 0.00 | 61 | 1013.5 | |
| 20260502151055 | 17 | 251 | 0.0 | 4.8 | 0.00 | 0.00 | 0.00 | 63 | 1013.4 |
| 20260502130116 | 11 | 322 | 0.0 | 1.6 | 0.00 | 0.00 | 0.00 | 80 | 1012.8 |
| 20260502123056 | 11 | 306 | 0.0 | 3.2 | 0.00 | 0.00 | 0.00 | 78 | 1012.6 |
| 20260502122057 | 11 | 35 | 0.0 | 3.2 | 0.00 | 0.00 | 0.00 | 78 | 1012.6 |
| 20260502121057 | 11 | 293 | 0.0 | 0.0 | 0.00 | 0.00 | 0.00 | 78 | 1012.6 |
| 20260502115056 | 11 | 53 | 0.0 | 4.8 | 0.00 | 0.00 | 0.00 | 77 | 1012.6 |
| 20260502114057 | 11 | 38 | 1.6 | 4.8 | 0.00 | 0.00 | 0.00 | 76 | 1012.6 |
| 20260502113057 | 12 | 46 | 1.6 | 6.4 | 0.00 | 0.00 | 0.00 | 75 | 1012.5 |
| 20260502112057 | 12 | 327 | 0.0 | 0.0 | 0.00 | 0.00 | 0.00 | 74 | 1012.5 |
| 20260502111057 | 12 | 271 | 0.0 | 3.2 | 0.00 | 0.00 | 0.00 | 73 | 1012.3 |
| 20260502110117 | 12 | 143 | 0.0 | 0.0 | 0.00 | 0.00 | 0.00 | 71 | 1012.4 |
| 20260502105118 | 12 | 244 | 1.6 | 6.4 | 0.00 | 0.00 | 0.00 | 72 | 1012.4 |
| 20260502104058 | 12 | 260 | 0.0 | 0.0 | 0.00 | 0.00 | 0.00 | 73 | 1012.4 |
| 20260502103059 | 12 | 38 | 1.6 | 4.8 | 0.00 | 0.00 | 0.00 | 73 | 1012.4 |
| 20260502102058 | 12 | 276 | 1.6 | 4.8 | 0.00 | 0.00 | 0.00 | 74 | 1012.4 |
| 20260502101058 | 12 | 306 | 0.0 | 3.2 | 0.00 | 0.00 | 0.00 | 73 | 1012.4 |
| 20260502091059 | 11 | 59 | 1.6 | 9.7 | 0.00 | 0.00 | 0.00 | 73 | 1012.7 |
| 20260502090119 | 12 | 265 | 6.4 | 9.7 | 0.00 | 0.00 | 0.00 | 71 | 1012.7 |
| 20260502071100 | 12 | 311 | 0.0 | 3.2 | 0.00 | 0.00 | 0.00 | 66 | 1012.5 |
| 20260502070100 | 13 | 0.0 | 0.0 | 0.00 | 0.00 | 0.00 | 65 | 1012.5 | |
| 20260502065100 | 13 | 27 | 0.0 | 1.6 | 0.00 | 0.00 | 0.00 | 65 | 1012.5 |
| 20260502064120 | 13 | 248 | 0.0 | 3.2 | 0.00 | 0.00 | 0.00 | 64 | 1012.5 |
| 20260502063100 | 13 | 255 | 1.6 | 4.8 | 0.00 | 0.00 | 0.00 | 63 | 1012.5 |
| 20260502062101 | 13 | 263 | 0.0 | 4.8 | 0.00 | 0.00 | 0.00 | 64 | 1012.4 |
| 20260502061121 | 14 | 251 | 3.2 | 4.8 | 0.00 | 0.00 | 0.00 | 64 | 1012.4 |
| 20260502060101 | 14 | 297 | 0.0 | 3.2 | 0.00 | 0.00 | 0.00 | 63 | 1012.3 |
| 20260502055101 | 14 | 244 | 0.0 | 3.2 | 0.00 | 0.00 | 0.00 | 62 | 1012.4 |
| 20260502054101 | 15 | 265 | 0.0 | 3.2 | 0.00 | 0.00 | 0.00 | 61 | 1012.4 |
| 20260502053141 | 15 | 262 | 1.6 | 4.8 | 0.00 | 0.00 | 0.00 | 60 | 1012.4 |
| 20260502052101 | 15 | 265 | 3.2 | 6.4 | 0.00 | 0.00 | 0.00 | 60 | 1012.4 |
| 20260502051101 | 15 | 239 | 4.8 | 8.0 | 0.00 | 0.00 | 0.00 | 61 | 1012.4 |
| 20260502045101 | 15 | 0.0 | 0.0 | 0.00 | 0.00 | 0.00 | 59 | 1012.0 | |
| 20260502044142 | 15 | 261 | 0.0 | 3.2 | 0.00 | 0.00 | 0.00 | 58 | 1012.0 |
| 20260502043101 | 16 | 255 | 0.0 | 3.2 | 0.00 | 0.00 | 0.00 | 55 | 1012.0 |
| 20260502042102 | 17 | 288 | 0.0 | 0.0 | 0.00 | 0.00 | 0.00 | 53 | 1011.9 |
| 20260502041102 | 17 | 242 | 0.0 | 3.2 | 0.00 | 0.00 | 0.00 | 51 | 1011.8 |
| 20260502035103 | 18 | 0.0 | 0.0 | 0.00 | 0.00 | 0.00 | 48 | 1011.7 | |
| 20260502034102 | 19 | 11 | 0.0 | 1.6 | 0.00 | 0.00 | 0.00 | 48 | 1011.7 |
| 20260502033102 | 20 | 0.0 | 0.0 | 0.00 | 0.00 | 0.00 | 44 | 1011.5 | |
| 20260502032102 | 20 | 204 | 0.0 | 1.6 | 0.00 | 0.00 | 0.00 | 44 | 1011.5 |
| 20260502031102 | 21 | 311 | 0.0 | 3.2 | 0.00 | 0.00 | 0.00 | 43 | 1011.4 |
| 20260502030603 | 22 | 267 | 0.0 | 1.6 | 0.00 | 0.00 | 0.00 | 42 | 1011.3 |
| 20260502025603 | 22 | 0.0 | 0.0 | 0.00 | 0.00 | 0.00 | 41 | 1011.3 | |
| 20260502025103 | 23 | 0.0 | 0.0 | 0.00 | 0.00 | 0.00 | 40 | 1011.4 | |
| 20260502024103 | 23 | 0.0 | 0.0 | 0.00 | 0.00 | 0.00 | 40 | 1011.4 | |
| 20260502023103 | 24 | 69 | 0.0 | 6.4 | 0.00 | 0.00 | 0.00 | 40 | 1011.3 |
| 20260502022123 | 24 | 55 | 3.2 | 8.0 | 0.00 | 0.00 | 0.00 | 40 | 1011.3 |
| 20260502021103 | 24 | 53 | 8.0 | 11.3 | 0.00 | 0.00 | 0.00 | 40 | 1011.3 |
| 20260502020104 | 24 | 58 | 8.0 | 9.7 | 0.00 | 0.00 | 0.00 | 39 | 1011.3 |
| 20260502015104 | 25 | 58 | 8.0 | 17.7 | 0.00 | 0.00 | 0.00 | 38 | 1011.3 |
| 20260502014104 | 25 | 58 | 11.3 | 16.1 | 0.00 | 0.00 | 0.00 | 37 | 1011.4 |
| 20260502013104 | 25 | 55 | 12.9 | 20.9 | 0.00 | 0.00 | 0.00 | 37 | 1011.5 |
| 20260502012104 | 25 | 61 | 11.3 | 22.5 | 0.00 | 0.00 | 0.00 | 38 | 1011.5 |
| 20260502011104 | 25 | 62 | 12.9 | 19.3 | 0.00 | 0.00 | 0.00 | 37 | 1011.7 |